Location: Sternwarte Zollern-Alb
(48.2880°N, 8.6780°E)
Time: 02:36:56
(UTC+02:00)

ISS - Pass Details

Date: 01 May 2026
Orbit: 414 x 424 km, 51.6° (Epoch: 19 May)

Event Time Altitude Azimuth Distance (km) Brightness Sun altitude
Exits shadow 03:16:05 57° 358° (N) 497 -3.2 -21.8°
Drops below altitude 10° 03:19:17 10° 67° (ENE) 1,501 -0.2 -21.5°
Sets 03:21:25 0° 71° (ENE) 2,369 0.8 -21.4°
